DateTimeUTC,F1_A11,F1_S11,BsB_S11,BsG_S11,BsR_S11,BbsB_S11,BbsG_S11,BbsR_S11,BaB_A11,BaG_A11,BaR_A11,Tu_S11,T_S11,Uu_S11,U_S11,P_S11,T1_A11
2021-11-29T22:00:00Z,00000200,21000000,,,,,,,0000.12,0000.07,0000.05,19.0,26.0,,00.0,0631.0,30.8
2021-11-29T22:01:00Z,00000200,21000000,,,,,,,-000.13,0000.01,-000.06,19.0,26.0,,00.0,0631.0,30.9
2021-11-29T22:02:00Z,00000200,21000000,,,,,,,-000.23,-000.22,0000.04,19.0,26.0,,00.0,0631.0,30.9
2021-11-29T22:03:00Z,00000200,61000000,,,,,,,0000.45,0000.64,0000.31,19.0,26.0,,00.0,0631.0,30.9
2021-11-29T22:04:00Z,00000200,41000000,-000.11,0000.28,-000.37,0000.58,-000.10,-000.11,0000.14,-000.19,-000.02,19.3,25.8,,00.0,0631.8,30.9
2021-11-29T22:05:00Z,00000200,01000000,0000.11,0000.22,0000.12,0000.17,0000.24,0000.15,0000.27,0000.24,0000.25,19.4,25.8,,00.0,0631.9,30.9
2021-11-29T22:06:00Z,00000200,01000000,-000.29,0000.16,-000.24,0000.52,0000.08,0000.08,0000.03,-000.04,0000.12,19.4,25.8,,00.0,0631.9,30.9
2021-11-29T22:07:00Z,00000200,01000000,0000.72,0000.45,-000.02,-000.18,0000.04,0000.04,-000.02,0000.26,-000.32,19.5,25.8,,00.0,0632.0,30.9
2021-11-29T22:08:00Z,00000200,01000000,0000.40,0000.10,-000.03,0000.06,0000.11,0000.32,0000.48,-000.13,0000.19,19.5,25.9,,00.0,0632.0,30.9
2021-11-29T22:09:00Z,00000200,01000000,0000.00,0000.31,-000.20,0000.56,-000.00,0000.20,-000.23,0000.45,0000.26,19.6,25.9,,00.0,0632.0,30.9
2021-11-29T22:10:00Z,00000200,01000000,-000.15,0000.33,-000.01,0000.49,0000.41,0000.33,0000.12,-000.16,0000.23,19.5,25.9,,00.0,0632.0,30.9
2021-11-29T22:11:00Z,00000200,01000000,0000.25,0000.33,0000.11,0000.20,0000.31,0000.20,0000.01,0000.20,-000.09,19.4,25.8,,00.0,0632.0,30.9
2021-11-29T22:12:00Z,00000200,01000000,0000.53,0000.10,0000.04,0000.26,0000.03,-000.08,0000.20,0000.18,-000.31,19.4,25.8,,00.0,0632.0,30.9
2021-11-29T22:13:00Z,00000200,01000000,0000.09,0000.49,0000.30,0000.67,-000.07,0000.11,0000.09,-000.19,0000.12,19.3,25.8,,00.0,0632.0,30.8
2021-11-29T22:14:00Z,00000200,01000000,0000.16,0000.05,-000.06,-000.14,0000.18,-000.24,0000.18,0000.35,0000.36,19.3,25.7,,00.0,0632.0,30.8
2021-11-29T22:15:00Z,00000200,01000000,0000.52,0000.31,0000.03,0000.26,0000.16,0000.17,0000.28,0000.21,0000.02,19.2,25.7,,00.0,0632.0,30.8
2021-11-29T22:16:00Z,00000200,01000000,0000.11,0000.28,-000.02,0000.10,0000.37,0000.36,0000.13,0000.23,0000.08,19.2,25.7,,00.0,0632.0,30.8
2021-11-29T22:17:00Z,00000200,01000000,0000.19,0000.44,-000.01,0000.01,0000.09,-000.04,0000.18,-000.36,0000.03,19.2,25.7,,00.0,0631.9,30.8
2021-11-29T22:18:00Z,00000200,01000000,0000.61,0000.78,0000.04,0000.11,0000.25,0000.01,0000.19,0000.75,0000.44,19.3,25.7,,00.0,0632.0,30.9
2021-11-29T22:19:00Z,00000200,01000000,0000.08,0000.19,0000.26,0000.32,0000.01,-000.11,0000.11,-000.18,-000.21,19.3,25.7,,00.0,0632.0,30.9
2021-11-29T22:20:00Z,00000200,01000000,0000.75,0000.15,-000.01,0000.19,0000.10,0000.57,0000.35,0000.50,0000.23,19.4,25.7,,00.0,0632.0,30.9
2021-11-29T22:21:00Z,00000200,01000000,0001.07,0000.16,0000.21,0000.54,0000.34,0000.23,-000.01,0000.06,0000.14,19.5,25.8,,00.0,0632.0,30.9
2021-11-29T22:22:00Z,00000200,01000000,0000.48,0000.28,-000.20,0000.02,0000.53,0000.08,-000.02,-000.12,-000.03,19.5,25.8,,00.0,0632.0,30.9
2021-11-29T22:23:00Z,00000200,01000000,0000.47,0000.08,-000.30,0000.57,0000.08,-000.12,-000.14,-000.15,0000.14,19.6,25.8,,00.0,0632.0,30.9
2021-11-29T22:24:00Z,00000200,01000000,-000.15,0000.27,-000.33,0000.22,0000.09,-000.16,0000.52,0000.37,-000.08,19.6,25.9,,00.0,0632.0,30.9
2021-11-29T22:25:00Z,00000200,01000000,0001.36,0000.10,0000.10,-000.19,0000.10,-000.08,-000.03,0000.13,0000.08,19.6,25.9,,00.0,0632.0,30.9
2021-11-29T22:26:00Z,00000200,01010000,0000.41,0000.05,-000.09,0000.47,0000.17,-000.02,-000.26,-000.18,0000.02,19.5,25.8,,00.0,0632.0,30.9
2021-11-29T22:27:00Z,00000200,01000000,0000.57,-000.03,-000.00,0000.69,0000.42,-000.02,0000.55,0000.14,0000.12,19.5,25.8,,00.0,0632.0,30.9
2021-11-29T22:28:00Z,00000200,01000000,0001.02,0000.44,-000.24,0000.76,0000.18,0000.11,0000.12,0000.26,0000.23,19.4,25.8,,00.0,0632.0,30.9
2021-11-29T22:29:00Z,00000200,01000000,0000.03,0000.19,0000.15,0000.40,0000.15,-000.02,0000.11,-000.32,-000.03,19.3,25.8,,00.0,0632.0,30.9
2021-11-29T22:30:00Z,00000200,01000000,0001.00,0000.42,0000.23,0000.80,0000.22,-000.01,0000.21,0000.32,0000.09,19.3,25.7,,00.0,0632.0,30.8
2021-11-29T22:31:00Z,00000200,01000000,0000.49,0000.23,-000.10,0000.25,0000.37,0000.02,0000.01,0000.49,-000.08,19.3,25.7,,00.0,0632.1,30.9
2021-11-29T22:32:00Z,00000200,01000000,-000.14,0000.23,-000.21,0000.37,0000.15,-000.24,0000.10,0000.08,0000.27,19.3,25.7,,00.0,0632.1,30.9
2021-11-29T22:33:00Z,00000200,01000000,0000.56,0000.26,0000.06,0000.06,0000.39,0000.24,0000.31,-000.07,0000.15,19.3,25.7,,00.0,0632.1,30.9
2021-11-29T22:34:00Z,00000200,01000000,-000.32,0000.04,-000.04,0000.07,0000.42,0000.33,0000.73,0000.11,-000.08,19.4,25.7,,00.0,0632.1,30.9
2021-11-29T22:35:00Z,00000200,01000000,0000.88,0000.33,-000.00,0000.31,0000.26,0000.29,-000.75,0000.42,-000.42,19.4,25.8,,00.0,0632.2,30.9
2021-11-29T22:36:00Z,00000200,01000000,0000.37,0000.15,0000.02,0000.75,0000.05,0000.01,0000.47,-000.05,0000.50,19.5,25.8,,00.0,0632.2,30.9
2021-11-29T22:37:00Z,00000200,01000000,-000.34,0000.25,-000.02,0000.69,0000.40,-000.07,-000.09,0000.03,0000.09,19.6,25.8,,00.0,0632.3,30.9
2021-11-29T22:38:00Z,00000200,01000000,0000.65,0000.44,-000.05,0000.13,0000.11,0000.30,0000.19,0000.09,0000.06,19.6,25.9,,00.0,0632.3,30.9
2021-11-29T22:39:00Z,00000200,01000000,0001.11,0000.23,-000.00,0000.26,0000.15,0000.44,0000.06,-000.21,-000.15,19.5,25.9,,00.0,0632.3,30.9
2021-11-29T22:40:00Z,00000200,01000000,0000.63,0000.46,-000.30,0000.36,0000.38,-000.17,0000.10,0000.37,0000.28,19.5,25.8,,00.0,0632.3,30.9
2021-11-29T22:41:00Z,00000200,01000000,0000.79,0000.15,0000.17,0000.68,0000.02,-000.04,0000.03,-000.02,0000.03,19.4,25.8,,00.0,0632.3,30.9
2021-11-29T22:42:00Z,00000200,01000000,0001.22,0000.20,-000.14,0000.44,0000.09,0000.15,0000.09,-000.20,0000.10,19.4,25.8,,00.0,0632.4,30.9
2021-11-29T22:43:00Z,00000200,01000000,-000.02,0000.28,-000.17,0000.90,0000.08,-000.27,0000.12,0000.15,-000.36,19.3,25.7,,00.0,0632.4,30.9
2021-11-29T22:44:00Z,00000200,01000000,0000.43,-000.09,0000.25,0000.16,0000.17,0000.09,0000.54,0000.33,0000.36,19.3,25.7,,00.0,0632.4,30.9
2021-11-29T22:45:00Z,00000200,01000000,0000.29,0000.27,-000.12,0000.41,0000.05,0000.11,-000.43,-000.13,-000.07,19.2,25.7,,00.0,0632.4,30.8
2021-11-29T22:46:00Z,00000200,01000000,0000.63,0000.23,0000.08,0000.15,0000.01,0000.08,0000.35,0000.43,0000.12,19.2,25.7,,00.0,0632.4,30.8
2021-11-29T22:47:00Z,00000200,01000000,0000.58,0000.27,0000.01,0000.07,-000.07,0000.18,0000.51,0000.20,-000.03,19.2,25.7,,00.0,0632.4,30.9
2021-11-29T22:48:00Z,00000200,01000000,0000.94,0000.59,0000.05,0000.79,0000.34,0000.06,-000.01,0000.15,0000.46,19.3,25.7,,00.0,0632.4,30.9
2021-11-29T22:49:00Z,00000200,01000000,0000.82,0000.35,0000.09,0000.19,0000.26,-000.02,0000.01,0000.21,-000.10,19.3,25.7,,00.0,0632.4,30.9
2021-11-29T22:50:00Z,00000200,01000000,0001.59,0000.59,-000.02,-000.26,0000.03,0000.08,0000.05,0000.08,0000.20,19.4,25.7,,00.0,0632.4,30.9
2021-11-29T22:51:00Z,00000200,01000000,0000.38,0000.24,0000.23,0000.73,-000.09,0000.16,0000.63,0000.20,0000.30,19.4,25.7,,00.0,0632.4,30.9
2021-11-29T22:52:00Z,00000200,01000000,0000.23,0000.37,-000.07,0000.33,0000.02,0000.08,0000.02,0000.25,0000.01,19.5,25.8,,00.0,0632.4,30.9
2021-11-29T22:53:00Z,00000200,01000000,0000.90,-000.10,-000.10,0000.13,0000.11,0000.12,-000.05,-000.02,-000.32,19.5,25.8,,00.0,0632.5,30.9
2021-11-29T22:54:00Z,00000200,01000000,0000.88,0000.31,0000.32,0000.17,0000.33,-000.01,-000.02,-000.09,0000.27,19.6,25.8,,00.0,0632.5,31.0
2021-11-29T22:55:00Z,00000200,01000000,0000.26,0000.23,-000.20,0000.61,-000.02,0000.22,0000.07,0000.03,0000.07,19.6,25.9,,00.0,0632.4,30.9
2021-11-29T22:56:00Z,00000200,01000000,0000.05,0000.36,-000.10,0000.38,-000.12,0000.11,0000.08,0000.21,-000.20,19.5,25.9,,00.0,0632.4,30.9
2021-11-29T22:57:00Z,00000200,41000000,,,,,,,0000.21,-000.05,0000.31,19.6,25.9,,00.0,0632.5,30.9
2021-11-29T22:58:00Z,00000200,61000000,,,,,,,-000.23,0000.21,-000.09,19.2,25.9,,00.0,0631.5,30.9
2021-11-29T22:59:00Z,00000200,21000000,,,,,,,0000.00,-000.21,0000.12,19.1,26.0,,00.0,0631.5,30.9
